Flag for Colombia Weather past 2 weeks in Buenaventura, Colombia

Now
68 °F

Fog.


Feels Like: 68 °F
Forecast: 77 / 90 °F
Wind: 2 mph from North

Location: Cali / Alfonso Bonillaaragon

Current Time: Mar 1, 2015 at 11:38:23 PM

Latest Report: Mar 1, 2015 at 11:00 PM


Visibility: 5 mi

Pressure: 30.06 "Hg

Humidity: 100%

Dew point: 68 °F

Location of BuenaventuraLocation

Historic Weather in Buenaventura — Graph

°F

Buenaventura temperature yesterday

Maximum temperature yesterday: 88 °F (at 1:00 PM)
Minimum temperature yesterday: 64 °F (at 4:00 AM)
Average temperature yesterday: 75 °F

Past Weeks' High & Low Weather Summary

 TemperatureHumidityPressure
High90 °F (Feb 16, 2:00 PM)100% (Feb 15, 5:00 AM)30.30 "Hg (Feb 15, 5:00 AM)
Low59 °F (Feb 27, 8:00 AM)38% (Feb 23, 3:00 PM)29.72 "Hg (Feb 27, 4:00 PM)
Average77 °F70%29.94 "Hg
* Reported Feb 14 11:00 PM — Mar 1 11:00 PM, Buenaventura, Weather by CustomWeather, © 2015

Note: Actual official high and low records may vary slightly from our data, if they occured in-between our weather recording intervals... More about our weather records

Advertising

Buenaventura weather history for previous 24 hours

 ConditionsComfort  
Time TempWeatherWind HumidityBarometerVisibility
11:00 PM
Sun, Mar 1
68 °FFog.2 mph100%30.06 "Hg5 mi
10:00 PM68 °FScattered showers. Partly cloudy.7 mph100%30.06 "Hg5 mi
9:00 PM70 °FScattered showers. Partly cloudy.3 mph94%30.05 "Hg6 mi
8:00 PM70 °FLight rain. Passing clouds.6 mph94%30.01 "Hg6 mi
7:00 PM72 °FThunderstorms. Partly cloudy.6 mph88%29.97 "Hg5 mi
6:00 PM73 °FThunderstorms. Broken clouds.5 mph83%29.92 "Hg6 mi
5:00 PM79 °FDrizzle. Broken clouds.9 mph70%29.88 "HgN/A
4:00 PM84 °FScattered showers. Scattered clouds.14 mph55%29.84 "HgN/A
3:00 PM84 °FScattered clouds.14 mph55%29.86 "HgN/A
2:00 PM90 °FScattered clouds.5 mph43%29.88 "HgN/A
1:00 PM88 °FScattered clouds.No wind46%29.94 "HgN/A
12:00 PM86 °FPassing clouds.5 mph46%29.98 "HgN/A
11:00 AM82 °FPassing clouds.5 mph58%30.01 "HgN/A
10:00 AM79 °FPassing clouds.No wind65%30.04 "HgN/A
9:00 AM77 °FScattered clouds.5 mph69%30.04 "HgN/A
8:00 AM72 °FScattered showers. Broken clouds.3 mph88%30.03 "Hg6 mi
7:00 AM68 °FDrizzle. Broken clouds.5 mph94%30.02 "Hg6 mi
6:00 AM70 °FScattered showers. Partly cloudy.No wind88%30.00 "Hg6 mi
5:00 AM70 °FPartly cloudy.5 mph88%29.97 "HgN/A
4:00 AM70 °FPartly cloudy.5 mph88%29.95 "HgN/A
3:00 AM70 °FPartly cloudy.No wind88%29.95 "HgN/A
2:00 AM70 °FPassing clouds.3 mph88%29.96 "HgN/A
1:00 AM72 °FPassing clouds.No wind83%29.97 "HgN/A
12:00 AM70 °FClear.5 mph88%29.98 "Hg10 mi
11:00 PM
Sat, Feb 28
72 °FPassing clouds.7 mph83%29.99 "HgN/A
Weather by CustomWeather, © 2015

See weather overviewHow to use our weather pages